Content
SEND FEEDBACK

Daily
Averages
Monthly
Summary
India

AMRITSAR, INDIA


Home > Asia > India
Elevation: 752 feet     Latitude: 31 42N     Longitude: 074 47E

WEATHER
 
SELECT A DAY
Number of Records: 129,326;   Date Range: 7/1/96 - 10/21/14
 
SHARE

PRINT THIS DATA

[ ← Previous Day ]
WEATHER ALMANAC - JUNE 21, 2013
[ Next Day → ]
[ °C ]   °F
Weather ElementAverageHighLow
Temperature93.7 °F109.4 °F (3:30 pm)77 °F (5:30 am)
Dewpoint75 °F82.4 °F (11:30 am)69.8 °F (4:00 am)
Humidity54.4 %78 % (5:30 am)27 % (2:30 pm)
Barometer29.41 in29.47 in (7:00 am)29.32 in (5:30 pm)
Wind Speed3.8 mph10.4 mph (4:30 pm)
Weather ElementAverage
Visibility2.9 mi
Wind DirectionESE (109.2 °)

Weather ElementTotal
Precipitation---
Cooling Degree Days28.2 (Base 65)
Growing Degree Days43.2 (Base 50)
Averaged from 28 records on June 21, 2013
WEATHER CONDITIONS BREAKOUT
WIND DIRECTION BREAKOUT
WEATHER BY HOUR - JUNE 21, 2013
[ °C ]   °F
Local TimeTemperatureDewpointHumidityBarometerVisibilityWind DirectionWind SpeedGust SpeedPrecipitationEventsConditions
1:00 AM86.0 °F73.4 °F66 %29.42 in3.1 miCalmHaze
2:00 AM86.0 °F73.4 °F66 %29.42 in3.1 miCalmHaze
2:30 AM84.0 °F72.0 °F59 %29.38 in2.0 miCalmHaze
2:30 AM84.2 °F71.6 °F66 %29.42 in3.1 miCalmHaze
4:00 AM82.4 °F69.8 °F66 %29.42 in2.5 miSSW (200°)5.8 mphHaze
5:30 AM77.0 °F69.8 °F78 %29.44 in2.5 miCalmHaze
6:00 AM77.0 °F69.8 °F78 %29.44 in2.2 miVariable1.2 mphHaze
7:00 AM82.4 °F71.6 °F70 %29.47 in2.2 miCalmHaze
7:30 AM84.2 °F71.6 °F66 %29.47 in2.2 miCalmHaze
8:30 AM91.0 °F80.0 °F63 %29.42 in2.0 miCalmHaze
8:30 AM91.4 °F80.6 °F71 %29.47 in2.5 miCalmHaze
10:00 AM93.2 °F78.8 °F63 %29.47 in3.1 miSSE (150°)4.6 mphHaze
10:30 AM96.8 °F80.6 °F60 %29.47 in3.1 miCalmHaze
11:30 AM96.8 °F82.4 °F63 %29.47 in3.7 miSouth (180°)6.9 mph
11:30 AM97.0 °F82.0 °F54 %29.41 in2.0 miSouth (180°)6.9 mph
12:30 PM98.6 °F77.0 °F50 %29.44 in3.7 miSSE (160°)4.6 mph
1:30 PM96.8 °F71.6 °F44 %29.44 in3.7 miSouth (170°)4.6 mph
2:00 PM98.6 °F71.6 °F42 %29.42 in3.7 miSouth (190°)8.1 mph
2:30 PM101.0 °F70.0 °F27 %29.35 in2.0 miSSE (160°)6.9 mph
3:30 PM109.4 °F73.4 °F32 %29.42 in3.7 miSouth (170°)8.1 mph
4:00 PM107.6 °F71.6 °F32 %29.39 in3.7 miSSW (200°)9.2 mph
4:30 PM105.8 °F71.6 °F33 %29.39 in3.7 miSouth (190°)10.4 mph
5:00 PM104.0 °F73.4 °F38 %29.39 in3.7 miSouth (190°)10.4 mph
5:30 PM102.0 °F79.0 °F39 %29.32 in2.0 miSSW (200°)10.4 mph
6:30 PM100.4 °F78.8 °F50 %29.39 in3.7 miSouth (190°)6.9 mph
7:30 PM100.4 °F78.8 °F50 %29.39 in3.7 miCalm
8:30 PM98.0 °F76.0 °F40 %29.32 in2.0 miCalm (200°)
11:30 PM92.0 °F79.0 °F58 %29.35 in2.0 miCalm
Hourly data recorded from VIAR, located miles away from Amritsar, India







STORIES FROM OUR PARTNERS